Location: Recife
(8.0585°S, 34.8848°W)
Time: 13:07:37
(UTC-03:00)

Transit 4A - Pass Details

Date: 23 April 2026
Orbit: 861 x 980 km, 66.8° (Epoch: 12 May)

Event Time Altitude Azimuth Distance (km) Brightness Sun altitude
Rises 11:02:55 0° 214° (SSW) 3,446 10.7 68.9°
Reaches altitude 10° 11:05:31 10° 221° (SW) 2,512 10.1 69.1°
Maximum altitude 11:10:52 40° 289° (WNW) 1,277 9.4 69.2°
Drops below altitude 10° 11:16:20 10° 357° (N) 2,551 10.7 69.3°
Sets 11:19:00 0° 4° (N) 3,505 11.2 69.3°
